This demonstration page uses our WeatherBlox Daily Observations layout. Learn more.

Left ArrowRight Arrow

38.80484, -77.04692

Hourly Observations for November 15, 2020

Temp ( °F °C ) Dew Point ( °F °C ) Humidity (%) Winds ( mph kmh ) Pressure ( in mb ) Visibility ( mi km ) Precip ( " mm )
12:52 am 00:52 Cloudy 50 10 40 4.4 68 68 Calm 30.21 1023 10 16.0934 0 0
1:52 am 01:52 Mostly Cloudy 50 10 43 6.1 77 77 E 6 9 30.21 1023 10 16.0934 0 0
2:52 am 02:52 Mostly Cloudy 50 10 42 5.6 74 74 ENE 5 7 30.2 1023 10 16.0934 0 0
3:52 am 03:52 Partly Cloudy 49 9.4 43 6.1 80 80 E 5 7 30.18 1022 10 16.0934 0 0
4:52 am 04:52 Cloudy 50 10 44 6.7 80 80 E 5 7 30.16 1022 10 16.0934 0 0
5:52 am 05:52 Cloudy 50 10 44 6.7 80 80 E 5 7 30.14 1021 10 16.0934 0 0
6:52 am 06:52 Cloudy 52 11.1 45 7.2 77 77 SE 7 11 30.13 1020 10 16.0934 0 0
7:52 am 07:52 Mostly Cloudy 53 11.7 46 7.8 77 77 S 8 13 30.11 1020 10 16.0934 0 0
8:52 am 08:52 Mostly Cloudy 54 12.2 48 8.9 80 80 S 9 15 30.09 1019 10 16.0934 0 0
9:52 am 09:52 Mostly Cloudy 58 14.4 50 10 75 75 S 15 24 30.04 1017 10 16.0934 0 0
10:52 am 10:52 Mostly Cloudy 62 16.7 51 10.6 67 67 S 20 31 29.99 1016 10 16.0934 0 0
11:52 am 11:52 Cloudy 62 16.7 52 11.1 70 70 S 15 24 29.93 1014 10 16.0934 0 0
12:52 pm 12:52 Cloudy 63 17.2 53 11.7 70 70 S 17 28 29.87 1012 10 16.0934 0 0
1:52 pm 13:52 Cloudy 65 18.3 54 12.2 68 68 S 15 24 29.83 1010 10 16.0934 0 0
2:52 pm 14:52 Cloudy 67 19.4 56 13.3 68 68 S 13 20 29.77 1008 10 16.0934 0 0
3:52 pm 15:52 Cloudy 67 19.4 58 14.4 73 73 S 13 20 29.73 1007 10 16.0934 0 0
4:52 pm 16:52 Cloudy 70 21.1 59 15 68 68 S 15 24 29.72 1007 10 16.0934 0 0
5:52 pm 17:52 Cloudy 71 21.7 59 15 66 66 S 18 30 29.71 1006 10 16.0934 0 0
6:52 pm 18:52 Mostly Cloudy 71 21.7 60 15.6 68 68 SSW 17 28 29.74 1007 10 16.0934 0 0
7:32 pm 19:32 Cloudy with Light Rain 68 20 58 14.4 70 70 WNW 26 43 29.78 1008 9 14.48406 0.001 0.001
7:41 pm 19:41 Cloudy with Heavy Rain 56 13.3 50 10 81 81 NW 29 46 29.8 1009 3 4.82802 0.02 0.508
7:43 pm 19:43 Cloudy with Heavy Rain 55 12.8 49 9.4 80 80 WNW 29 46 29.83 1010 2 3.21868 0.05 1.27
7:45 pm 19:45 Cloudy with Heavy Rain 55 12.8 49 9.4 80 80 NW 25 41 29.82 1010 1.25 2.011675 0.08 2.032
7:52 pm 19:52 Cloudy with Rain 55 12.8 47 8.3 74 74 WNW 20 31 29.82 1010 1.25 2.011675 0.26 6.604
7:55 pm 19:55 Cloudy with Light Rain 56 13.3 47 8.3 72 72 WNW 20 31 29.82 1010 3 4.82802 0.001 0.001
8:01 pm 20:01 Cloudy with Light Rain 56 13.3 46 7.8 70 70 WNW 18 30 29.81 1009 10 16.0934 0.001 0.001
8:52 pm 20:52 Mostly Cloudy 59 15 41 5 51 51 WNW 14 22 29.83 1010 10 16.0934 0.001 0.001
9:52 pm 21:52 Mostly Cloudy 58 14.4 39 3.9 50 50 W 12 19 29.85 1011 10 16.0934 0 0
10:52 pm 22:52 Mostly Clear 58 14.4 37 2.8 46 46 WNW 12 19 29.87 1012 10 16.0934 0 0
11:52 pm 23:52 Clear 57 13.9 37 2.8 47 47 NW 12 19 29.9 1013 10 16.0934 0 0

Powered by AerisWeather